Catania, Italy

4:12 PM CEST on June 24, 2017 (GMT +0200)
Fontanarossa

Weather History for LICC - August, 2014

Change the Weather History Date:

Wednesday, August 13, 2014

  Actual Average Record
Temperature  
Mean Temperature 86 °F -  
Max Temperature 102 °F 87 °F 102 °F (2014)
Min Temperature 69 °F 65 °F 62 °F (2011)
Cooling Degree Days 20    
Growing Degree Days 36 (Base 50)    
Moisture  
Dew Point 52 °F    
Average Humidity 35    
Maximum Humidity 66    
Minimum Humidity 11    
Precipitation  
Precipitation 0.00 in 0.03 in - ()
Sea Level Pressure  
Sea Level Pressure 29.85 in    
Wind  
Wind Speed 7 mph ()    
Max Wind Speed 13 mph    
Max Gust Speed -    
Visibility 6.0 miles    
Events      
Averages and records for this station are not official NWS values.
T = Trace of Precipitation, MM = Missing Value Source: Averaged Metar Reports

Daily Weather History Graph

Daily Weather History Graph

Search for Another Location

Airport or City:

Trip Planner

Search our weather history database for the weather conditions in past years. The results will help you decide how hot, cold, wet, or windy it might be!

Date:

Astronomy

Aug. 13, 2014 Rise Set
Actual Time 6:13 AM CEST 7:54 PM CEST
Civil Twilight 5:45 AM CEST 8:22 PM CEST
Nautical Twilight 5:12 AM CEST 8:56 PM CEST
Astronomical Twilight 4:36 AM CEST 9:32 PM CEST
Moon 9:34 PM CEST (8/13) 9:16 AM CEST (8/13)
Length of Visible Light 14h 36m
Length of Day
13h 40m
Waning Gibbous, 90% of the Moon is Illuminated
Aug 13
Waning Gibbous
Aug 17
Last Quarter
Aug 25
New
Sep 2
First Quarter
Sep 9
Full

Hourly Weather History & Observations

Time (CEST) Temp. Heat Index Dew Point Humidity Pressure Visibility Wind Dir Wind Speed Gust Speed Precip Events Conditions
12:20 AM 77.0 °F - 51.8 °F 41% 29.89 in - West 4.6 mph - N/A   Clear
12:50 AM 77.0 °F - 51.8 °F 41% 29.89 in - WSW 5.8 mph - N/A   Clear
1:20 AM 75.2 °F - 51.8 °F 44% 29.89 in - West 3.5 mph - N/A   Clear
1:50 AM 75.2 °F - 50.0 °F 41% 29.89 in - West 6.9 mph - N/A   Clear
2:00 AM 76 °F - 49 °F 28% 29.90 in 6 mi West 6.9 mph - -  
2:20 AM 75.2 °F - 48.2 °F 38% 29.89 in - West 4.6 mph - N/A   Clear
2:50 AM 73.4 °F - 50.0 °F 44% 29.89 in - WSW 8.1 mph - N/A   Clear
3:20 AM 75.2 °F - 48.2 °F 38% 29.89 in - West 6.9 mph - N/A   Clear
3:50 AM 73.4 °F - 48.2 °F 41% 29.86 in - WSW 8.1 mph - N/A   Clear
4:20 AM 73.4 °F - 48.2 °F 41% 29.86 in - WSW 8.1 mph - N/A   Clear
4:50 AM 75.2 °F - 48.2 °F 38% 29.86 in - West 9.2 mph - N/A   Clear
5:00 AM 74 °F - 49 °F 31% 29.88 in 6 mi WSW 8.1 mph - -  
5:20 AM 71.6 °F - 50.0 °F 46% 29.86 in - WSW 8.1 mph - N/A   Clear
5:50 AM 69.8 °F - 50.0 °F 49% 29.86 in - WSW 8.1 mph - N/A   Clear
6:20 AM 69.8 °F - 50.0 °F 49% 29.86 in - WSW 8.1 mph - N/A   Clear
6:50 AM 69.8 °F - 50.0 °F 49% 29.86 in - West 6.9 mph - N/A   Clear
7:20 AM 71.6 °F - 50.0 °F 46% 29.89 in - WSW 6.9 mph - N/A   Clear
7:50 AM 78.8 °F - 53.6 °F 42% 29.89 in - WSW 4.6 mph - N/A   Clear
8:00 AM 82 °F - 53 °F 26% 29.88 in 6 mi WSW 5.8 mph - -  
8:20 AM 86.0 °F - 51.8 °F 31% 29.89 in - West 6.9 mph - N/A   Clear
8:50 AM 87.8 °F - 50.0 °F 27% 29.86 in - West 10.4 mph - N/A   Clear
9:20 AM 89.6 °F - 50.0 °F 26% 29.86 in - West 10.4 mph - N/A   Clear
9:50 AM 91.4 °F - 50.0 °F 24% 29.86 in - West 11.5 mph - N/A   Clear
10:20 AM 93.2 °F - 50.0 °F 23% 29.86 in - WSW 11.5 mph - N/A   Clear
10:50 AM 95.0 °F - 48.2 °F 20% 29.86 in - West 10.4 mph - N/A   Clear
11:00 AM 96 °F - 49 °F 12% 29.87 in 6 mi West 9.2 mph - -  
11:20 AM 96.8 °F - 42.8 °F 16% 29.86 in - West 12.7 mph - N/A   Clear
11:50 AM 98.6 °F - 42.8 °F 15% 29.86 in - West 12.7 mph - N/A   Clear
12:20 PM 100.4 °F - 39.2 °F 12% 29.86 in - WSW 12.7 mph - N/A   Clear
12:50 PM 100.4 °F - 35.6 °F 11% 29.83 in - SW 9.2 mph - N/A   Clear
1:20 PM 91.4 °F 91.4 °F 60.8 °F 36% 29.83 in - East 12.7 mph - N/A   Clear
2:20 PM 89.6 °F 89.5 °F 60.8 °F 38% 29.83 in - ENE 10.4 mph - N/A   Clear
2:50 PM 89.6 °F 89.5 °F 60.8 °F 38% 29.83 in - ENE 9.2 mph - N/A   Clear
3:20 PM 87.8 °F 87.1 °F 59.0 °F 38% 29.83 in - ENE 10.4 mph - N/A   Clear
3:50 PM 87.8 °F 87.6 °F 60.8 °F 40% 29.83 in - ENE 9.2 mph - N/A   Clear
4:20 PM 89.6 °F 87.7 °F 55.4 °F 31% 29.83 in - ENE 9.2 mph - N/A   Clear
4:50 PM 89.6 °F 87.7 °F 55.4 °F 31% 29.83 in - ENE 9.2 mph - N/A   Clear
5:00 PM 89 °F - 57 °F 24% 29.83 in 6 mi ENE 9.2 mph - -  
5:20 PM 87.8 °F 86.1 °F 55.4 °F 33% 29.83 in - ENE 9.2 mph - N/A   Clear
5:50 PM 87.8 °F 86.1 °F 55.4 °F 33% 29.80 in - ENE 8.1 mph - N/A   Clear
6:20 PM 87.8 °F 86.5 °F 57.2 °F 35% 29.80 in - East 4.6 mph - N/A   Clear
6:50 PM 84.2 °F 85.6 °F 64.4 °F 51% 29.80 in - East 6.9 mph - N/A   Clear
7:20 PM 82.4 °F 86.3 °F 69.8 °F 66% 29.83 in - East 4.6 mph - N/A   Clear
7:50 PM 82.4 °F 86.3 °F 69.8 °F 66% 29.83 in - Variable 2.3 mph - N/A   Clear
8:00 PM 82 °F - 70 °F 58% 29.83 in 6 mi South 1.2 mph - -  
8:20 PM 86.0 °F - 50.0 °F 29% 29.83 in - West 3.5 mph - N/A   Clear
8:50 PM 86.0 °F - 48.2 °F 27% 29.83 in - WSW 8.1 mph - N/A   Clear
9:20 PM 84.2 °F - 50.0 °F 30% 29.86 in - West 8.1 mph - N/A   Clear
9:50 PM 82.4 °F - 50.0 °F 32% 29.86 in - WSW 6.9 mph - N/A   Clear
10:20 PM 82.4 °F - 48.2 °F 30% 29.86 in - WSW 5.8 mph - N/A   Clear
10:50 PM 82.4 °F - 50.0 °F 32% 29.86 in - West 8.1 mph - N/A   Clear
11:00 PM 82 °F - 50 °F 23% 29.86 in 6 mi West 9.2 mph - -  
11:20 PM 80.6 °F 80.3 °F 53.6 °F 39% 29.83 in - West 11.5 mph - N/A   Clear
11:50 PM 80.6 °F - 51.8 °F 37% 29.83 in - West 10.4 mph - N/A   Clear